Location: Buczkowska Wola
(51.5205°N, 19.1463°E)
Time: 23:06:22
(UTC+00:00)

Daily predictions for brighter satellites

Satellite Brightness Start Highest point End
(mag) Time Altitude Azimuth Time Altitude Azimuth Time Altitude Azimuth
Cosmos 1302 Rocket 4.2 19:40:22 10° NNW 19:45:39 80° WSW 19:50:55 10° SSE
Cosmos 2173 Rocket 4.1 19:39:40 10° N 19:45:52 66° ENE 19:51:55 10° SSE
Cosmos 1758 3.3 19:43:33 10° N 19:47:17 61° ENE 19:50:58 10° SSE
Cosmos 2084 Rocket 3.5 19:44:24 10° NW 19:48:36 71° NE 19:52:43 10° SE
Cosmos 1992 Rocket 4.1 19:47:28 10° NNW 19:52:40 69° ENE 19:57:50 10° SSE
Cosmos 1933 Rocket 4.4 19:49:10 10° N 19:53:17 37° ENE 19:57:20 10° SE
ATLAS CENTAUR R/B 1.2 19:49:54 10° NW 19:53:44 71° SW 19:57:28 10° SSE
SL-16 R/B 2.6 19:48:12 10° NNW 19:53:48 58° NE 19:59:22 10° SE
Helios 1A 3.2 19:49:56 10° N 19:53:54 71° WNW 19:57:49 10° SSW
Cosmos 1727 Rocket 4.0 19:49:08 10° S 19:55:17 80° E 20:01:30 10° NNE
IRS-1C Rocket 4.2 19:55:19 10° SSE 20:00:34 82° WSW 20:05:53 10° NNW
COSMOS 2455 3.3 19:54:59 10° NW 20:00:55 59° WSW 20:06:48 10° SSE
Terra 2.8 19:56:35 10° S 20:01:05 44° W 20:05:36 10° NNW
Cosmos 2227 Rocket 2.4 19:55:49 10° S 20:01:15 52° ESE 20:06:45 10° NE
Cosmos 2100 Rocket 4.0 19:55:18 10° N 20:01:32 85° E 20:07:41 10° S
Cosmos 1515 Rocket 4.0 19:58:52 10° SSE 20:03:06 47° E 20:07:22 10° NNE
PSLV R/B 3.4 20:00:23 10° SSE 20:03:40 73° ENE 20:06:59 10° N
USA 276 3.8 20:05:44 10° SW 20:05:59 10° SSW 20:06:15 10° SSW
Cosmos 2263 Rocket 3.0 20:01:16 10° SSE 20:06:10 31° ESE 20:11:07 10° NE
RESURS DK-1 3.0 20:05:18 10° S 20:08:56 34° ESE 20:12:35 10° NE
Cosmos 1725 Rocket 4.2 20:04:35 10° N 20:10:53 65° ENE 20:17:08 10° SSE
Okean O Rocket 3.7 20:10:23 10° SW 20:13:47 23° W 20:17:13 10° NW
Spot 2 Rocket 4.2 20:09:19 10° S 20:14:14 51° W 20:19:13 10° NNW
Cosmos 1943 4.3 20:09:57 10° NNW 20:15:14 37° NE 20:20:29 10° ESE
Cosmos 1437 Rocket 2.6 20:21:35 10° S 20:25:04 60° E 20:28:37 10° NNE
Cosmos 921 Rocket 3.2 20:21:16 10° SSW 20:25:32 77° WNW 20:29:54 10° NNE
Cosmos 2219 3.8 20:21:27 10° S 20:26:42 39° ESE 20:32:00 10° NE
Geosat 4.4 20:24:09 10° NE 20:28:55 43° ESE 20:33:40 10° S
COBE Rocket 4.4 20:26:31 10° NNE 20:31:25 46° E 20:35:51 12° S
SL-14 R/B 4.2 20:29:36 10° SSW 20:33:25 49° WNW 20:37:15 10° N
Cosmos 2123 Rocket 4.0 20:28:01 10° S 20:34:18 82° E 20:40:34 10° NNE
Cosmos 2082 4.4 20:31:12 10° S 20:36:16 35° ESE 20:41:24 10° NE
SL-8 R/B 4.1 20:36:26 10° W 20:41:00 46° SSW 20:45:09 12° SE
Cosmos 2237 Rocket 3.9 20:38:08 10° NW 20:42:39 25° WSW 20:47:09 10° SSW
USA 290 3.2 20:41:32 17° SSE 20:43:24 30° ESE 20:46:16 10° NE
NOSS 3-1 (C) 4.2 20:40:17 10° NW 20:47:00 67° NE 20:55:25 10° ESE
ARIANE 5 R/B 3.8 20:43:26 12° SE 20:47:03 33° ENE 20:51:05 10° N
Cosmos 1802 Rocket 4.4 20:41:07 10° NNW 20:47:31 68° W 20:53:51 10° S
Cosmos 2061 Rocket 4.0 20:42:53 10° N 20:49:13 79° E 20:54:39 14° SSE
SL-4 R/B 3.3 20:47:40 12° S 20:50:15 20° SE 20:53:15 10° E
Cosmos 1140 Rocket 4.1 20:46:57 14° SSE 20:50:57 38° ESE 20:55:40 10° NE
USA 305 2.2 20:49:32 10° WSW 20:53:19 69° SSE 20:56:26 10° ENE
Cosmos 1953 2.1 20:49:39 10° N 20:53:25 80° E 20:56:11 18° SSE
Lacrosse 4 Rocket 3.0 20:57:27 10° WNW 21:00:58 26° WSW 21:04:06 12° SSW
Meteor 2-21 Rocket 4.5 20:55:44 11° S 21:01:43 78° E 21:07:53 10° NNE
Cosmos 1703 4.1 21:01:19 18° SE 21:03:07 29° E 21:06:11 10° NNE
NOSS 3-4 (A) 4.2 20:59:11 10° WSW 21:04:32 52° NNW 21:10:35 10° NE
NOSS 3-4 (C) 4.2 20:59:17 10° WSW 21:04:37 53° NW 21:10:41 10° NE
DNEPR-1 R/B 4.0 21:00:45 10° SSW 21:06:36 70° SE 21:11:28 10° NE
Cosmos 2016 Rocket 4.5 21:00:27 10° NNW 21:06:38 59° W 21:12:39 11° S
Cosmos 1818 4.1 21:02:01 10° SW 21:07:25 64° NW 21:12:52 10° NE
Cosmos 1892 3.5 21:10:55 20° SE 21:12:02 25° E 21:14:35 10° NE
Cosmos 407 Rocket 4.3 21:10:51 18° SSE 21:13:58 34° ESE 21:18:33 10° NE
Cosmos 1844 Rocket 4.0 21:13:11 16° SE 21:16:07 24° ESE 21:20:35 10° NE
CZ-4C R/B 3.1 21:13:28 10° NNE 21:16:40 51° E 21:18:25 23° S
Cosmos 2297 Rocket 4.1 21:12:06 10° WSW 21:17:07 31° NW 21:22:10 10° NNE
USA 59 Rocket 1.4 21:14:16 10° NNW 21:17:09 28° NE 21:20:40 10° E
IRIDIUM 104 4.4 21:15:18 18° S 21:19:14 68° E 21:24:26 10° N
Cosmos 2228 Rocket 3.7 21:17:10 19° SSE 21:19:54 41° E 21:24:05 10° NNE
GP-B 3.6 21:15:55 10° N 21:20:14 56° W 21:23:59 13° SSW
ATLAS 3B R/B 4.4 21:13:42 10° NW 21:20:59 38° NNE 21:28:12 10° E
Cosmos 1269 Rocket 4.0 21:20:53 10° SSW 21:26:10 86° WNW 21:31:30 10° NNE
IRIDIUM 114 4.3 21:24:26 18° S 21:28:22 80° E 21:33:38 10° N
Cosmos 1707 Rocket 3.7 21:28:01 21° SSE 21:30:42 57° E 21:34:56 10° NNE
Cosmos 540 Rocket 3.7 21:25:56 10° NNW 21:31:02 62° ENE 21:34:50 18° SE
Landsat 5 4.2 21:27:43 10° NNE 21:31:46 40° E 21:34:00 22° SSE
NOSS 3-1 (A) 4.2 21:28:33 10° NW 21:35:19 67° NE 21:43:40 10° ESE
IRIDIUM 103 4.3 21:33:34 18° S 21:37:32 87° W 21:42:47 10° N
SL-16 R/B 3.5 21:32:46 10° NW 21:37:35 30° WSW 21:41:38 14° SSW
ALOS 2 3.0 21:37:03 20° SE 21:39:57 56° ENE 21:44:16 10° N
ATLAS 2AS CENTAUR R/B 4.2 21:37:43 15° SE 21:40:47 20° ESE 21:45:31 10° ENE
Cosmos 468 Rocket 4.4 21:36:24 10° NNW 21:41:30 56° ENE 21:45:25 17° SE
Cosmos 1464 Rocket 4.2 21:35:31 10° N 21:41:49 67° ENE 21:46:20 19° SSE
Cosmos 1733 Rocket 3.1 21:37:54 10° NNW 21:42:18 73° W 21:45:01 22° S
Cosmos 2344 4.0 21:34:41 10° NW 21:42:38 78° SW 21:52:06 14° SSE
Cosmos 2227 Rocket 3.7 21:40:20 10° WSW 21:45:31 36° NW 21:50:45 10° NNE
RESURS DK-1 4.0 21:42:46 10° WSW 21:46:25 33° NW 21:50:05 10° NNE
Cosmos 2034 Rocket 4.5 21:42:31 10° N 21:48:36 53° ENE 21:53:15 18° SE
Cosmos 2263 Rocket 2.9 21:44:14 10° SW 21:49:48 56° NW 21:55:27 10° NNE
CZ-2C R/B 3.7 21:48:13 10° NNE 21:52:46 88° WNW 21:56:00 20° SSW
Okean 2 3.9 21:50:02 16° SSW 21:52:57 51° WNW 21:56:47 10° N
Okean 3 4.0 21:50:57 16° SSW 21:54:05 53° WNW 21:58:07 10° N
Aureole 3 Rocket 2.3 21:52:24 10° NNW 21:55:31 83° W 21:57:14 28° S
ASTEX 1 3.6 21:53:49 10° N 21:58:46 68° W 22:02:22 18° SSW
Cosmos 1943 3.6 21:53:57 10° NW 21:59:29 52° WSW 22:03:04 21° S
SeaSat 1 2.9 21:57:55 14° SE 22:02:00 59° NE 22:06:50 10° NNW
Cosmos 1908 Rocket 3.8 21:58:06 10° N 22:02:26 61° ENE 22:05:01 23° SSE
NOSS 2-1 (D) 3.6 22:04:14 10° NW 22:07:33 59° NE 22:11:23 12° ESE
Cosmos 1763 Rocket 3.7 22:04:19 10° NNW 22:09:22 57° WSW 22:12:23 23° S
Cosmos 2219 4.2 22:05:14 10° SW 22:10:46 47° NW 22:16:21 10° NNE
Cosmos 1862 Rocket 4.0 22:11:29 18° SSW 22:14:36 57° WNW 22:18:57 10° N
Cosmos 1603 3.7 22:11:30 10° NW 22:17:05 68° WSW 22:20:41 23° SSE
Cosmos 1271 Rocket 2.6 22:16:29 30° S 22:18:03 63° E 22:21:38 10° NNE
Cosmos 2292 Rocket 4.5 22:18:13 14° WSW 22:20:02 24° WNW 22:22:30 10° NNW
USA 305 2.9 22:18:38 10° W 22:21:59 48° NNW 22:24:32 10° ENE
Okean 1-7 3.1 22:19:41 23° SSW 22:22:11 67° WNW 22:26:19 10° N
ARIANE 5 R/B 3.7 22:20:49 19° SSW 22:23:22 34° W 22:27:28 10° NNW
Cosmos 546 4.4 22:23:16 10° W 22:27:05 78° S 22:30:55 10° E
SL-4 R/B 1.9 22:23:42 10° WSW 22:27:45 60° SSE 22:31:40 10° E
NOSS 2-1 (C) 3.1 22:32:17 10° NW 22:35:41 86° SW 22:38:47 18° SE
PSLV R/B 3.5 22:31:38 10° NNE 22:35:57 87° ESE 22:38:27 25° SSW
CZ-2C R/B 4.0 22:33:29 10° SE 22:38:07 33° ENE 22:42:52 10° N
Cosmos 2227 4.3 22:33:33 15° SW 22:38:17 76° WNW 22:43:57 10° NNE
NOSS 2-1 (E) 3.2 22:35:50 10° NW 22:39:16 89° SW 22:42:35 17° SE
SJ 16-02 2.1 22:38:57 24° SSE 22:40:55 39° ESE 22:44:57 10° NE
Cosmos 1300 Rocket 3.6 22:36:42 10° N 22:41:08 80° E 22:43:39 25° SSE
PSLV R/B 3.8 22:40:13 10° NNE 22:44:08 68° ESE 22:46:02 29° S
Cosmos 1892 4.3 22:43:00 12° WSW 22:44:51 19° WNW 22:47:06 10° NNW
Cosmos 676 Rocket 4.1 22:44:37 24° S 22:47:45 63° ESE 22:52:56 10° NNE
Cosmos 407 Rocket 4.5 22:50:56 10° SW 22:55:48 42° WNW 23:00:40 10° NNE
USA 307 2.7 22:54:11 28° SSW 22:55:53 51° SSE 22:59:46 10° ENE
Cosmos 1844 Rocket 2.9 22:54:47 15° SW 22:59:30 70° WNW 23:05:12 10° NNE
USA 234 3.7 22:53:39 10° ENE 22:59:48 42° SE 23:03:50 21° SSW
Cosmos 1782 Rocket 3.6 22:57:07 10° NNW 23:01:30 68° W 23:03:54 26° S
Cosmos 1703 Rocket 3.9 22:59:24 23° SSW 23:01:57 56° WNW 23:06:12 10° N
Cosmos 2251 Rocket 4.1 22:59:04 14° SW 23:03:30 55° WNW 23:08:47 10° NNE
Cosmos 1844 3.8 22:59:50 16° SW 23:04:18 72° WNW 23:09:52 10° NNE
USA 59 Rocket 0.2 23:02:46 10° NW 23:06:12 47° SW 23:08:26 25° S
MINOTAUR IV R/B 4.5 23:06:45 25° SSW 23:09:16 80° ESE 23:13:41 10° NNE
Cosmos 1954 Rocket 4.1 23:07:47 19° SW 23:11:31 71° WNW 23:16:43 10° NNE
ATLAS 3B R/B 3.2 23:05:01 10° NW 23:12:58 76° NE 23:20:39 10° SE
Cosmos 1340 Rocket 4.3 23:10:31 10° N 23:13:58 30° ENE 23:17:17 11° SE
Tsikada Rocket 4.1 23:12:12 21° SSW 23:16:33 74° WNW 23:22:51 10° N
ALOS 2 4.4 23:14:27 14° SW 23:16:38 20° W 23:19:52 10° NW
Meteor 1-24 Rocket 4.0 23:13:40 20° SSW 23:17:54 68° WNW 23:23:49 10° N
Cosmos 1606 2.1 23:19:14 10° NNW 23:22:17 67° W 23:23:21 35° S
Cosmos 841 Rocket 3.9 23:19:31 10° NW 23:24:33 47° WSW 23:27:33 23° SSW
Cosmos 304 Rocket 4.2 23:22:36 23° S 23:25:19 49° ESE 23:29:55 10° NNE
Cosmos 2279 Rocket 4.0 23:19:44 10° N 23:25:58 85° W 23:30:32 19° S
NOSS 3-1 (A) 4.4 23:19:24 10° NW 23:26:13 45° WSW 23:32:25 17° S
ATLAS 2AS CENTAUR R/B 2.8 23:25:05 18° SSW 23:30:41 75° SE 23:37:36 10° NE
BREEZE-M DEB (TANK) 3.4 23:28:11 18° SW 23:31:02 31° SSE 23:33:32 10° E
Meteor 2-5 Rocket 4.2 23:27:46 18° SSW 23:32:05 58° WNW 23:37:59 10° N
H-2A R/B 2.1 23:31:18 23° SSE 23:33:27 86° ENE 23:37:06 10° NNW
Cosmos 2242 Rocket 3.6 23:31:50 24° S 23:34:31 88° E 23:39:00 10° N
Cosmos 1814 Rocket 4.3 23:30:26 10° NNW 23:35:48 72° ENE 23:41:08 10° SSE
Cosmos 1850 Rocket 4.1 23:32:32 22° S 23:35:49 63° ESE 23:40:56 10° NNE
SL-24 R/B - RUBIN 2 3.7 23:31:23 10° NW 23:36:29 87° NE 23:41:02 10° SE
IDEFIX/ARIANE 42P 4.1 23:32:44 10° NE 23:37:11 27° E 23:41:28 11° SSE
H-2A R/B 4.3 23:35:16 10° ENE 23:37:15 13° E 23:39:13 10° ESE
Cosmos 1833 Rocket 2.6 23:33:31 10° NNW 23:39:09 79° WSW 23:44:08 13° SSE
SeaSat 1 3.6 23:37:33 20° SSW 23:39:41 27° WSW 23:43:51 10° NW
Landsat 4 2.9 23:40:02 32° S 23:41:13 78° WSW 23:44:08 10° NNW
Cosmos 1869 3.6 23:38:00 10° N 23:41:41 55° ENE 23:44:22 17° SSE
Cosmos 2180 Rocket 4.5 23:35:43 10° N 23:41:56 89° W 23:46:50 17° S
Spot 2 4.3 23:44:35 15° SSE 23:48:31 81° ENE 23:53:05 10° NNW
USA 305 2.5 23:48:01 10° WNW 23:50:47 44° N 23:52:40 10° E
CZ-2C R/B 3.2 23:48:16 10° NNE 23:53:48 80° ESE 23:57:35 19° S
